Weather Roundup
Issued by NWS Springfield, MO

Home | Current Version | Previous Version | Text Only | Print | Product List | Glossary On
Versions: 1 2 3 4 5 6 7 8 9 10 11 12 13 14 15 16 17 18 19 20 21 22 23 24 25 26 27 28 29 30 31 32 33 34 35 36 37 38 39 40 41 42 43 44 45 46 47 48 49 50
990
NZUS99 KSGF 210307
HRRSGF

HOURLY WEATHER
NATIONAL WEATHER SERVICE SPRINGFIELD MO
1000 PM CDT SUN AUG 20 2017

......SGF CWA......

CITY           SKY/WX    TMP DP  RH WIND       PRES   REMARKS
SPRINGFIELD    RAIN      73  69  87 E9        30.10F FOG
JOPLIN         CLOUDY    80  71  74 E12G20    30.08R
WEST PLAINS    MOCLDY    76  73  91 CALM      30.12R
ROLLA          MOCLDY    78  71  79 S6        30.07R
OSAGE BEACH    CLOUDY    78  69  73 CALM      30.05F
BRANSON        CLOUDY    77  72  83 E6        30.12R

......SURROUNDING SGF CWA......

CITY           SKY/WX    TMP DP  RH WIND       PRES   REMARKS
CHANUTE        CLEAR     81  70  69 SE8       30.02R
PARSONS        PTCLDY    81  72  74 SE6       30.03R
COFFEYVILLE    CLEAR     80  74  81 SE5       30.02R
EMPORIA        MOCLDY    82  71  69 S14       29.99R
GROVE OK       CLOUDY    82  75  78 CALM      30.05R
ROGERS AR      CLOUDY    80  74  81 E5        30.11R
SILOAM SPRINGS CLEAR     79  68  69 E3        30.07R
HARRISON AR    PTCLDY    77  72  84 S7        30.11R
NEAR YELLVILLE CLOUDY    79  68  69 CALM      30.07R

......KANSAS AND MISSOURI......

CITY           SKY/WX    TMP DP  RH WIND       PRES   REMARKS
KANSAS CTY INT MOCLDY    82  75  79 S13       30.01R
DOWNTOWN KC    PTCLDY    84  70  62 S10       30.00R
COLUMBIA       PTCLDY    80  73  79 SW10      30.04R
SEDALIA        MOCLDY    77  65  66 S13       30.03F
ST JOSEPH      CLOUDY    80  75  84 S9        29.99R
ST LOUIS       CLOUDY    81  72  74 NW7       30.05R
SPIRIT OF STL  CLOUDY    77  73  87 S3        30.03R
KIRKSVILLE     PTCLDY    69  66  90 SE5       30.05R
WICHITA        PTCLDY    83  70  64 S12       29.99R
TOPEKA         MOCLDY    83  78  85 SE12      29.98R HX  93
OLATHE         CLOUDY    76  68  76 S14       30.03R

......TENNESSEE......

CITY           SKY/WX    TMP DP  RH WIND       PRES   REMARKS
MEMPHIS        PTCLDY    80  73  79 CALM      30.08R
NASHVILLE      CLOUDY    79  69  71 S6        30.12R

......ARKANSAS.......

CITY           SKY/WX    TMP DP  RH WIND       PRES   REMARKS
FAYETTEVILLE   CLOUDY    75  72  90 CALM      30.09R
FT SMITH       PTCLDY    77  73  87 NE6       30.03R
LITTLE ROCK    CLOUDY    82  77  84 S3        30.04R HX  90

......OKLAHOMA.......

CITY           SKY/WX    TMP DP  RH WIND       PRES   REMARKS
TULSA          PTCLDY    87  73  62 S8        29.99R HX  94
PONCA CITY     CLEAR     84  71  65 S12       30.00R
MCALESTER      CLEAR     81  75  82 SE5       30.03R
OKLAHOMA CITY  PTCLDY    79  71  76 S8        30.02R

......IOWA............

CITY           SKY/WX    TMP DP  RH WIND       PRES   REMARKS
DES MOINES     MOCLDY    73  66  78 S5        30.02R
QUAD CITIES    CLEAR     72  68  87 SE3       30.00R

......ILLINOIS........

CITY           SKY/WX    TMP DP  RH WIND       PRES   REMARKS
QUINCY         CLEAR     73  67  81 SW5       30.03R
CHICAGO        CLOUDY    80  70  71 CALM      30.03S




USA.gov is the U.S. government's official web portal to all federal, state and local government web resources and services.